Flag for Norway Weather past 2 weeks in Tønsberg, Norway

Now
59 °F

Clear.


Feels Like: 59 °F
Forecast: 48 / 63 °F
Wind: 2 mph from South

Location: Oseberg

Current Time: Sep 18, 2014 at 7:51:02 AM

Latest Report: Sep 18, 2014 at 7:20 AM


Visibility: 10 mi

Pressure: 30.12 "Hg

Humidity: 77%

Dew point: 52 °F

Location of TønsbergLocation

Historic Weather in Tønsberg — Graph

°F

Tønsberg temperature yesterday

Maximum temperature yesterday: 64 °F (at 4:50 AM)
Minimum temperature yesterday: 59 °F (at 12:50 AM)
Average temperature yesterday: 61 °F

Past Weeks' High & Low Weather Summary

 TemperatureHumidityPressure
High64 °F (Sep 17, 4:50 AM)100% (Sep 3, 10:50 PM)30.48 "Hg (Sep 3, 10:50 PM)
Low54 °F (Sep 6, 6:20 AM)42% (Sep 16, 5:20 PM)29.74 "Hg (Sep 7, 6:50 AM)
Average57 °F86%30.16 "Hg
* Reported Sep 3 5:50 AM — Sep 18 5:50 AM, Tønsberg, Weather by CustomWeather, © 2014

Note: Actual official high and low records may vary slightly from our data, if they occured in-between our weather recording intervals... More about our weather records

Advertising

Tønsberg weather history for previous 24 hours

 ConditionsComfort  
Time TempWeatherWind HumidityBarometerVisibility
5:50 AM
Sep 18
57 °FClear.7 mph82%30.12 "Hg10 mi
4:50 AM57 °FClear.9 mph72%30.12 "Hg10 mi
3:50 AM59 °FClear.13 mph68%30.15 "Hg10 mi
2:50 AM61 °FPassing clouds.10 mph59%30.15 "HgN/A
1:50 AM61 °FPassing clouds.8 mph52%30.15 "HgN/A
12:50 AM63 °FClear.12 mph45%30.18 "Hg10 mi
11:50 PM
Sep 17
61 °FPassing clouds.9 mph59%30.18 "HgN/A
10:50 PM61 °FPassing clouds.8 mph55%30.18 "HgN/A
9:50 PM59 °FClear.No wind77%30.18 "Hg10 mi
8:48 PM59 °FClear.5 mph72%30.18 "Hg10 mi
7:48 PM59 °FSunny.8 mph72%30.18 "Hg10 mi
6:50 PM61 °FSunny.10 mph68%30.18 "Hg10 mi
6:19 PM61 °FSunny.10 mph68%30.18 "Hg10 mi
5:50 PM61 °FSunny.10 mph68%30.18 "Hg10 mi
4:50 PM61 °FSunny.14 mph68%30.18 "Hg10 mi
3:50 PM61 °FSunny.14 mph72%30.18 "Hg10 mi
3:20 PM61 °FSunny.15 mph72%30.18 "Hg10 mi
2:50 PM61 °FSunny.15 mph72%30.21 "Hg10 mi
2:20 PM61 °FSunny.15 mph77%30.21 "Hg10 mi
1:50 PM61 °FSunny.12 mph77%30.21 "Hg10 mi
1:20 PM61 °FSunny.15 mph72%30.21 "Hg10 mi
12:50 PM61 °FSunny.17 mph72%30.21 "Hg10 mi
12:20 PM61 °FSunny.18 mph68%30.21 "Hg10 mi
11:50 AM61 °FSunny.17 mph72%30.21 "Hg10 mi
11:20 AM61 °FSunny.18 mph72%30.21 "Hg10 mi
10:50 AM61 °FSunny.18 mph68%30.21 "Hg10 mi
10:20 AM61 °FSunny.18 mph68%30.21 "Hg10 mi
9:50 AM61 °FSunny.20 mph68%30.21 "Hg10 mi
9:20 AM61 °FSunny.20 mph68%30.21 "Hg10 mi
8:50 AM61 °FSunny.20 mph68%30.21 "Hg10 mi
8:20 AM61 °FSunny.20 mph68%30.21 "Hg10 mi
7:50 AM61 °FSunny.18 mph72%30.21 "Hg10 mi
7:20 AM61 °FClear.20 mph72%30.21 "Hg10 mi
Weather by CustomWeather, © 2014

See weather overviewHow to use our weather pages